GLOBALSTAR M056 [-]

Last updated on Fri Dec 29 2023 00:02:56 GMT+0000 (Coordinated Universal Time)

1 25945U 99058C 23362.07859112 -.00000094 00000+0 -79746-4 0 9996 2 25945 51.9950 235.9532 0000997 118.5353 29.9472 12.04774290 97933
UTC large
Height (km)
Speed (km/s)
/
Latitude / Longitude
Inclination (degrees)
Orbital Period (minutes)
Azimuth
Elevation
Range (km)
Doppler Factor

Next 0 passes for location: London (51.5072 / 0.1276)

Sorry there are no passes over London.